| time (UTC) | temp F | wind direction | speed MPH | gust MPH | rain 1hr in | rain 24hr in | rain mn in | humidity % | barometer mb |
| 20260905034608 | 69 | 1 | 4.0 | 7.0 | 0.00 | 0.00 | 0.00 | 96 | 1017.8 |
| 20260905034102 | 69 | 76 | 1.0 | 4.0 | 0.00 | 0.00 | 0.00 | 96 | 1017.8 |
| 20260905033601 | 70 | 130 | 3.0 | 3.0 | 0.00 | 0.00 | 0.00 | 96 | 1017.8 |
| 20260905033058 | 70 | 78 | 4.0 | 6.0 | 0.00 | 0.00 | 0.00 | 95 | 1017.6 |
| 20260905032557 | 70 | 65 | 1.0 | 7.0 | 0.00 | 0.00 | 0.00 | 95 | 1017.6 |
| 20260905032052 | 70 | 74 | 3.0 | 4.0 | 0.00 | 0.00 | 0.00 | 95 | 1017.6 |
| 20260905031548 | 70 | 125 | 1.0 | 3.0 | 0.00 | 0.00 | 0.00 | 95 | 1017.5 |
| 20260905031048 | 71 | 65 | 2.0 | 3.0 | 0.00 | 0.00 | 0.00 | 95 | 1017.5 |
| 20260905030543 | 71 | 105 | 1.0 | 8.0 | 0.00 | 0.00 | 0.00 | 94 | 1017.6 |
| 20260905030043 | 71 | 35 | 2.0 | 3.0 | 0.00 | 0.00 | 0.00 | 94 | 1017.4 |
| 20260905025538 | 71 | 100 | 1.0 | 4.0 | 0.00 | 0.00 | 0.00 | 94 | 1017.4 |
| 20260905025035 | 72 | 71 | 2.0 | 4.0 | 0.00 | 0.00 | 0.00 | 93 | 1017.2 |
| 20260905024530 | 72 | 51 | 4.0 | 6.0 | 0.00 | 0.00 | 0.00 | 93 | 1017.2 |
| 20260905024025 | 72 | 135 | 0.0 | 2.0 | 0.00 | 0.00 | 0.00 | 93 | 1017.4 |
| 20260905023520 | 72 | 90 | 1.0 | 8.0 | 0.00 | 0.00 | 0.00 | 92 | 1017.1 |
| 20260905023015 | 73 | 104 | 4.0 | 7.0 | 0.00 | 0.00 | 0.00 | 92 | 1017.2 |
| 20260905022515 | 73 | 86 | 1.0 | 6.0 | 0.00 | 0.00 | 0.00 | 91 | 1016.9 |
| 20260905022010 | 73 | 90 | 4.0 | 7.0 | 0.00 | 0.00 | 0.00 | 91 | 1016.7 |
| 20260905021509 | 73 | 74 | 2.0 | 6.0 | 0.00 | 0.00 | 0.00 | 90 | 1016.7 |
| 20260905021005 | 74 | 47 | 4.0 | 4.0 | 0.00 | 0.00 | 0.00 | 90 | 1016.9 |
| 20260905020459 | 74 | 84 | 3.0 | 3.0 | 0.00 | 0.00 | 0.00 | 89 | 1016.6 |
| 20260905015953 | 74 | 77 | 0.0 | 1.0 | 0.00 | 0.00 | 0.00 | 88 | 1016.7 |
| 20260905015451 | 75 | 117 | 2.0 | 3.0 | 0.00 | 0.00 | 0.00 | 87 | 1016.5 |
| 20260905014945 | 75 | 85 | 1.0 | 3.0 | 0.00 | 0.00 | 0.00 | 87 | 1016.3 |
| 20260905014441 | 75 | 76 | 2.0 | 4.0 | 0.00 | 0.00 | 0.00 | 87 | 1016.3 |
| 20260905013936 | 75 | 145 | 1.0 | 3.0 | 0.00 | 0.00 | 0.00 | 86 | 1016.2 |
| 20260905013433 | 75 | 88 | 3.0 | 4.0 | 0.00 | 0.00 | 0.00 | 86 | 1016.2 |
| 20260905012933 | 75 | 52 | 5.0 | 6.0 | 0.00 | 0.00 | 0.00 | 86 | 1016.1 |
| 20260905012428 | 75 | 90 | 0.0 | 1.0 | 0.00 | 0.00 | 0.00 | 86 | 1015.9 |
| 20260905011925 | 75 | 62 | 2.0 | 2.0 | 0.00 | 0.00 | 0.00 | 86 | 1016.0 |
| 20260905011421 | 75 | 93 | 1.0 | 1.0 | 0.00 | 0.00 | 0.00 | 86 | 1016.1 |
| 20260905010916 | 76 | 145 | 0.0 | 0.0 | 0.00 | 0.00 | 0.00 | 85 | 1016.3 |
| 20260905010411 | 76 | 90 | 1.0 | 2.0 | 0.00 | 0.00 | 0.00 | 84 | 1016.2 |
| 20260905005907 | 77 | 90 | 1.0 | 4.0 | 0.00 | 0.00 | 0.00 | 83 | 1016.3 |
| 20260905005403 | 77 | 54 | 2.0 | 3.0 | 0.00 | 0.00 | 0.00 | 83 | 1016.1 |
| 20260905004857 | 77 | 144 | 1.0 | 3.0 | 0.00 | 0.00 | 0.00 | 82 | 1015.9 |
| 20260905004352 | 77 | 121 | 0.0 | 3.0 | 0.00 | 0.00 | 0.00 | 82 | 1016.1 |
| 20260905003847 | 77 | 149 | 0.0 | 2.0 | 0.00 | 0.00 | 0.00 | 82 | 1015.9 |
| 20260905003343 | 78 | 93 | 1.0 | 2.0 | 0.00 | 0.00 | 0.00 | 81 | 1016.2 |
| 20260905002838 | 78 | 91 | 1.0 | 3.0 | 0.00 | 0.00 | 0.00 | 81 | 1016.0 |
| 20260905002338 | 78 | 127 | 0.0 | 1.0 | 0.00 | 0.00 | 0.00 | 81 | 1016.0 |
| 20260905001832 | 78 | 21 | 1.0 | 3.0 | 0.00 | 0.00 | 0.00 | 80 | 1016.0 |
| 20260905001327 | 79 | 151 | 0.0 | 1.0 | 0.00 | 0.00 | 0.00 | 80 | 1016.1 |
| 20260905000823 | 79 | 137 | 1.0 | 2.0 | 0.00 | 0.00 | 0.00 | 79 | 1016.2 |
| 20260905000318 | 79 | 119 | 0.0 | 1.0 | 0.00 | 0.00 | 0.00 | 78 | 1015.8 |
| 20260904235812 | 80 | 139 | 0.0 | 2.0 | 0.00 | 0.00 | 0.00 | 77 | 1016.0 |
| 20260904235307 | 80 | 113 | 1.0 | 2.0 | 0.00 | 0.00 | 0.00 | 76 | 1015.9 |
| 20260904234802 | 81 | 112 | 1.0 | 3.0 | 0.00 | 0.00 | 0.00 | 75 | 1015.9 |
| 20260904234252 | 82 | 109 | 1.0 | 3.0 | 0.00 | 0.00 | 0.00 | 74 | 1015.9 |
| 20260904233747 | 82 | 82 | 1.0 | 3.0 | 0.00 | 0.00 | 0.00 | 72 | 1015.9 |
| 20260904233238 | 83 | 81 | 3.0 | 4.0 | 0.00 | 0.00 | 0.00 | 71 | 1015.9 |
| 20260904232734 | 83 | 147 | 3.0 | 4.0 | 0.00 | 0.00 | 0.00 | 71 | 1015.8 |
| 20260904232230 | 83 | 91 | 2.0 | 6.0 | 0.00 | 0.00 | 0.00 | 70 | 1015.7 |
| 20260904231725 | 84 | 28 | 3.0 | 4.0 | 0.00 | 0.00 | 0.00 | 69 | 1015.7 |
| 20260904231220 | 84 | 45 | 2.0 | 4.0 | 0.00 | 0.00 | 0.00 | 70 | 1015.6 |
| 20260904230715 | 84 | 57 | 3.0 | 4.0 | 0.00 | 0.00 | 0.00 | 68 | 1015.7 |
| 20260904230209 | 84 | 98 | 2.0 | 6.0 | 0.00 | 0.00 | 0.00 | 68 | 1015.6 |
| 20260904225708 | 85 | 54 | 5.0 | 8.0 | 0.00 | 0.00 | 0.00 | 67 | 1015.5 |
| 20260904225202 | 84 | 121 | 1.0 | 3.0 | 0.00 | 0.00 | 0.00 | 68 | 1015.5 |
| 20260904224656 | 84 | 88 | 2.0 | 4.0 | 0.00 | 0.00 | 0.00 | 68 | 1015.5 |
| 20260904224151 | 85 | 171 | 2.0 | 7.0 | 0.00 | 0.00 | 0.00 | 66 | 1015.7 |
| 20260904223650 | 85 | 135 | 7.0 | 8.0 | 0.00 | 0.00 | 0.00 | 66 | 1015.7 |
| 20260904223146 | 85 | 95 | 4.0 | 4.0 | 0.00 | 0.00 | 0.00 | 65 | 1015.6 |
| 20260904222642 | 84 | 75 | 2.0 | 6.0 | 0.00 | 0.00 | 0.00 | 67 | 1015.5 |
| 20260904222137 | 85 | 99 | 5.0 | 7.0 | 0.00 | 0.00 | 0.00 | 67 | 1015.5 |
| 20260904221636 | 85 | 8 | 4.0 | 7.0 | 0.00 | 0.00 | 0.00 | 67 | 1015.6 |
| 20260904221131 | 85 | 80 | 4.0 | 9.0 | 0.00 | 0.00 | 0.00 | 67 | 1015.4 |
| 20260904220626 | 85 | 83 | 3.0 | 6.0 | 0.00 | 0.00 | 0.00 | 64 | 1015.5 |
| 20260904220121 | 86 | 91 | 4.0 | 7.0 | 0.00 | 0.00 | 0.00 | 65 | 1015.6 |
| 20260904215616 | 85 | 26 | 4.0 | 7.0 | 0.00 | 0.00 | 0.00 | 65 | 1015.4 |
| 20260904215112 | 85 | 80 | 2.0 | 7.0 | 0.00 | 0.00 | 0.00 | 68 | 1015.5 |
| 20260904214607 | 86 | 52 | 2.0 | 3.0 | 0.00 | 0.00 | 0.00 | 65 | 1015.4 |
| 20260904214103 | 86 | 86 | 2.0 | 4.0 | 0.00 | 0.00 | 0.00 | 65 | 1015.5 |
| 20260904213600 | 85 | 266 | 1.0 | 4.0 | 0.00 | 0.00 | 0.00 | 66 | 1015.4 |
| 20260904213057 | 86 | 55 | 6.0 | 7.0 | 0.00 | 0.00 | 0.00 | 64 | 1015.5 |
| 20260904212556 | 85 | 209 | 1.0 | 4.0 | 0.00 | 0.00 | 0.00 | 66 | 1015.6 |
| 20260904212052 | 86 | 98 | 5.0 | 7.0 | 0.00 | 0.00 | 0.00 | 67 | 1015.7 |
| 20260904211551 | 85 | 55 | 4.0 | 6.0 | 0.00 | 0.00 | 0.00 | 68 | 1015.6 |
| 20260904211047 | 85 | 139 | 2.0 | 3.0 | 0.00 | 0.00 | 0.00 | 68 | 1015.7 |
| 20260904210546 | 86 | 328 | 3.0 | 6.0 | 0.00 | 0.00 | 0.00 | 67 | 1015.5 |
| 20260904210042 | 85 | 103 | 3.0 | 4.0 | 0.00 | 0.00 | 0.00 | 67 | 1015.4 |
| 20260904205536 | 86 | 107 | 2.0 | 3.0 | 0.00 | 0.00 | 0.00 | 68 | 1015.6 |
| 20260904205033 | 86 | 6 | 2.0 | 4.0 | 0.00 | 0.00 | 0.00 | 69 | 1015.4 |
| 20260904204529 | 85 | 358 | 2.0 | 3.0 | 0.00 | 0.00 | 0.00 | 68 | 1015.5 |
| 20260904204025 | 85 | 41 | 1.0 | 2.0 | 0.00 | 0.00 | 0.00 | 68 | 1015.6 |
| 20260904203520 | 85 | 188 | 0.0 | 6.0 | 0.00 | 0.00 | 0.00 | 70 | 1015.5 |
| 20260904203017 | 84 | 76 | 3.0 | 7.0 | 0.00 | 0.00 | 0.00 | 70 | 1015.6 |
| 20260904202512 | 85 | 17 | 3.0 | 6.0 | 0.00 | 0.00 | 0.00 | 69 | 1015.5 |
| 20260904202008 | 85 | 42 | 2.0 | 10.0 | 0.00 | 0.00 | 0.00 | 74 | 1015.7 |
| 20260904201503 | 85 | 14 | 2.0 | 3.0 | 0.00 | 0.00 | 0.00 | 72 | 1015.7 |
| 20260904200959 | 84 | 74 | 2.0 | 6.0 | 0.00 | 0.00 | 0.00 | 71 | 1015.7 |
| 20260904200457 | 84 | 333 | 2.0 | 8.0 | 0.00 | 0.00 | 0.00 | 73 | 1015.6 |
| 20260904195952 | 84 | 103 | 2.0 | 3.0 | 0.00 | 0.00 | 0.00 | 71 | 1015.6 |
| 20260904195450 | 83 | 299 | 2.0 | 6.0 | 0.00 | 0.00 | 0.00 | 74 | 1015.6 |
| 20260904194949 | 84 | 86 | 2.0 | 3.0 | 0.00 | 0.00 | 0.00 | 72 | 1015.5 |
| 20260904194444 | 82 | 32 | 1.0 | 6.0 | 0.00 | 0.00 | 0.00 | 76 | 1015.5 |
| 20260904193939 | 82 | 66 | 2.0 | 3.0 | 0.00 | 0.00 | 0.00 | 75 | 1015.5 |
| 20260904193435 | 82 | 1 | 4.0 | 7.0 | 0.00 | 0.00 | 0.00 | 77 | 1015.3 |
| 20260904192930 | 82 | 84 | 3.0 | 6.0 | 0.00 | 0.00 | 0.00 | 76 | 1015.4 |
| 20260904192425 | 82 | 223 | 0.0 | 6.0 | 0.00 | 0.00 | 0.00 | 78 | 1015.7 |
| 20260904191922 | 81 | 53 | 4.0 | 6.0 | 0.00 | 0.00 | 0.00 | 79 | 1015.5 |
| 20260904191418 | 81 | 131 | 4.0 | 7.0 | 0.00 | 0.00 | 0.00 | 79 | 1015.8 |
| 20260904190914 | 81 | 155 | 2.0 | 6.0 | 0.00 | 0.00 | 0.00 | 79 | 1015.6 |
| 20260904190409 | 80 | 151 | 2.0 | 6.0 | 0.00 | 0.00 | 0.00 | 81 | 1015.6 |
| 20260904185906 | 81 | 340 | 1.0 | 6.0 | 0.00 | 0.00 | 0.00 | 80 | 1015.9 |
| 20260904185401 | 80 | 65 | 1.0 | 7.0 | 0.00 | 0.00 | 0.00 | 82 | 1015.9 |
| 20260904184901 | 79 | 121 | 4.0 | 6.0 | 0.00 | 0.00 | 0.00 | 81 | 1015.7 |
| 20260904184356 | 79 | 19 | 2.0 | 4.0 | 0.00 | 0.00 | 0.00 | 82 | 1015.7 |
| 20260904183851 | 78 | 40 | 4.0 | 6.0 | 0.00 | 0.00 | 0.00 | 83 | 1015.7 |
| 20260904183346 | 78 | 22 | 5.0 | 7.0 | 0.00 | 0.00 | 0.00 | 84 | 1015.9 |
| 20260904182842 | 78 | 1 | 5.0 | 6.0 | 0.00 | 0.00 | 0.00 | 83 | 1015.8 |
| 20260904182336 | 77 | 107 | 2.0 | 7.0 | 0.00 | 0.00 | 0.00 | 86 | 1016.0 |
| 20260904181832 | 77 | 75 | 3.0 | 6.0 | 0.00 | 0.00 | 0.00 | 87 | 1016.1 |
| 20260904181332 | 77 | 86 | 4.0 | 6.0 | 0.00 | 0.00 | 0.00 | 86 | 1016.2 |
| 20260904180827 | 77 | 119 | 3.0 | 6.0 | 0.00 | 0.00 | 0.00 | 86 | 1016.2 |
| 20260904180323 | 76 | 34 | 3.0 | 6.0 | 0.00 | 0.00 | 0.00 | 87 | 1016.1 |
| 20260904175821 | 76 | 66 | 2.0 | 3.0 | 0.00 | 0.00 | 0.00 | 88 | 1016.1 |
| 20260904175320 | 76 | 0 | 1.0 | 4.0 | 0.00 | 0.00 | 0.00 | 87 | 1016.1 |
| 20260904174815 | 76 | 64 | 4.0 | 7.0 | 0.00 | 0.00 | 0.00 | 88 | 1016.0 |
| 20260904174311 | 75 | 38 | 5.0 | 8.0 | 0.00 | 0.00 | 0.00 | 88 | 1016.1 |
| 20260904173807 | 75 | 92 | 4.0 | 9.0 | 0.00 | 0.00 | 0.00 | 90 | 1016.1 |
| 20260904173302 | 75 | 15 | 2.0 | 7.0 | 0.00 | 0.00 | 0.00 | 90 | 1015.9 |
| 20260904172758 | 74 | 85 | 2.0 | 7.0 | 0.00 | 0.00 | 0.00 | 91 | 1015.8 |
| 20260904172257 | 74 | 38 | 3.0 | 6.0 | 0.00 | 0.00 | 0.00 | 92 | 1016.0 |
| 20260904171752 | 74 | 64 | 5.0 | 7.0 | 0.00 | 0.00 | 0.00 | 92 | 1016.1 |
| 20260904171248 | 74 | 91 | 3.0 | 6.0 | 0.00 | 0.00 | 0.00 | 92 | 1016.0 |
| 20260904170744 | 73 | 92 | 3.0 | 8.0 | 0.00 | 0.00 | 0.00 | 93 | 1016.3 |
| 20260904170239 | 73 | 63 | 4.0 | 6.0 | 0.00 | 0.00 | 0.00 | 94 | 1015.8 |
| 20260904165738 | 74 | 54 | 5.0 | 8.0 | 0.00 | 0.00 | 0.00 | 93 | 1015.6 |
| 20260904165232 | 73 | 65 | 3.0 | 7.0 | 0.00 | 0.00 | 0.00 | 94 | 1015.7 |
| 20260904164732 | 73 | 16 | 3.0 | 3.0 | 0.00 | 0.00 | 0.00 | 95 | 1015.8 |
| 20260904164227 | 72 | 198 | 1.0 | 3.0 | 0.00 | 0.00 | 0.00 | 96 | 1015.7 |
| 20260904163724 | 72 | 3 | 2.0 | 6.0 | 0.00 | 0.00 | 0.00 | 97 | 1015.6 |
| 20260904163219 | 71 | 11 | 3.0 | 3.0 | 0.00 | 0.00 | 0.00 | 97 | 1015.7 |
| 20260904162718 | 71 | 36 | 4.0 | 6.0 | 0.00 | 0.00 | 0.00 | 98 | 1015.6 |
| 20260904162213 | 71 | 27 | 4.0 | 4.0 | 0.00 | 0.00 | 0.00 | 99 | 1015.6 |
| 20260904161708 | 70 | 43 | 4.0 | 4.0 | 0.00 | 0.00 | 0.00 | 99 | 1015.6 |
| 20260904161203 | 69 | 26 | 1.0 | 4.0 | 0.00 | 0.00 | 0.00 | 99 | 1015.4 |
| 20260904160700 | 69 | 50 | 2.0 | 6.0 | 0.00 | 0.00 | 0.00 | 99 | 1015.3 |
| 20260904160154 | 69 | 27 | 2.0 | 4.0 | 0.00 | 0.00 | 0.00 | 99 | 1015.4 |
| 20260904155649 | 68 | 28 | 2.0 | 4.0 | 0.00 | 0.00 | 0.00 | 99 | 1015.5 |
| 20260904155148 | 68 | 25 | 4.0 | 4.0 | 0.00 | 0.00 | 0.00 | 99 | 1015.4 |
| 20260904154647 | 68 | 116 | 2.0 | 3.0 | 0.00 | 0.00 | 0.00 | 99 | 1015.4 |
| 20260904154142 | 68 | 265 | 0.0 | 4.0 | 0.00 | 0.00 | 0.00 | 99 | 1015.4 |
| 20260904153637 | 68 | 340 | 3.0 | 6.0 | 0.00 | 0.00 | 0.00 | 99 | 1015.4 |
| 20260904153137 | 67 | 104 | 2.0 | 3.0 | 0.00 | 0.00 | 0.00 | 99 | 1015.2 |
| 20260904152634 | 67 | 38 | 3.0 | 6.0 | 0.00 | 0.00 | 0.00 | 99 | 1015.4 |
| 20260904152129 | 67 | 76 | 2.0 | 4.0 | 0.00 | 0.00 | 0.00 | 99 | 1015.5 |
| 20260904151624 | 67 | 88 | 5.0 | 8.0 | 0.00 | 0.00 | 0.00 | 99 | 1015.4 |
| 20260904151123 | 67 | 100 | 2.0 | 4.0 | 0.00 | 0.00 | 0.00 | 99 | 1015.3 |
| 20260904150619 | 67 | 87 | 1.0 | 3.0 | 0.00 | 0.00 | 0.00 | 99 | 1015.2 |
| 20260904150114 | 66 | 66 | 2.0 | 4.0 | 0.00 | 0.00 | 0.00 | 99 | 1015.1 |
| 20260904145612 | 67 | 5 | 1.0 | 3.0 | 0.00 | 0.00 | 0.00 | 99 | 1015.2 |
| 20260904145108 | 66 | 5 | 2.0 | 3.0 | 0.00 | 0.00 | 0.00 | 99 | 1015.3 |
| 20260904144604 | 66 | 33 | 2.0 | 2.0 | 0.00 | 0.00 | 0.00 | 99 | 1015.2 |
| 20260904144059 | 66 | 98 | 1.0 | 3.0 | 0.00 | 0.00 | 0.00 | 99 | 1015.3 |
| 20260904143555 | 66 | 80 | 1.0 | 2.0 | 0.00 | 0.00 | 0.00 | 99 | 1015.1 |
| 20260904143051 | 66 | 54 | 2.0 | 6.0 | 0.00 | 0.00 | 0.00 | 99 | 1015.0 |
| 20260904142548 | 66 | 36 | 1.0 | 3.0 | 0.00 | 0.00 | 0.00 | 99 | 1015.1 |
| 20260904142043 | 66 | 4 | 1.0 | 3.0 | 0.00 | 0.00 | 0.00 | 99 | 1014.7 |
| 20260904141538 | 66 | 39 | 2.0 | 3.0 | 0.00 | 0.00 | 0.00 | 99 | 1014.6 |
| 20260904141034 | 66 | 9 | 2.0 | 4.0 | 0.00 | 0.00 | 0.00 | 99 | 1014.7 |
| 20260904140533 | 66 | 327 | 2.0 | 2.0 | 0.00 | 0.00 | 0.00 | 99 | 1014.6 |
| 20260904140028 | 66 | 100 | 2.0 | 2.0 | 0.00 | 0.00 | 0.00 | 99 | 1014.6 |
| 20260904135527 | 66 | 43 | 2.0 | 6.0 | 0.00 | 0.00 | 0.00 | 99 | 1014.5 |
| 20260904135024 | 66 | 37 | 1.0 | 3.0 | 0.00 | 0.00 | 0.00 | 99 | 1014.4 |
| 20260904134519 | 66 | 78 | 2.0 | 3.0 | 0.00 | 0.00 | 0.00 | 99 | 1014.3 |
| 20260904134013 | 66 | 85 | 2.0 | 3.0 | 0.00 | 0.00 | 0.00 | 99 | 1014.3 |
| 20260904133507 | 66 | 121 | 1.0 | 2.0 | 0.00 | 0.00 | 0.00 | 99 | 1014.2 |
| 20260904133003 | 66 | 56 | 1.0 | 3.0 | 0.00 | 0.00 | 0.00 | 99 | 1014.1 |
| 20260904132458 | 66 | 344 | 1.0 | 3.0 | 0.00 | 0.00 | 0.00 | 99 | 1014.2 |
| 20260904131957 | 65 | 23 | 2.0 | 4.0 | 0.00 | 0.00 | 0.00 | 99 | 1014.2 |
| 20260904131452 | 65 | 359 | 2.0 | 3.0 | 0.00 | 0.00 | 0.00 | 99 | 1014.4 |
| 20260904130948 | 65 | 14 | 2.0 | 4.0 | 0.00 | 0.00 | 0.00 | 99 | 1014.2 |
| 20260904130447 | 65 | 82 | 1.0 | 2.0 | 0.00 | 0.00 | 0.00 | 99 | 1014.2 |
| 20260904125942 | 65 | 102 | 1.0 | 2.0 | 0.00 | 0.00 | 0.00 | 99 | 1014.2 |
| 20260904125438 | 65 | 2 | 2.0 | 2.0 | 0.00 | 0.00 | 0.00 | 99 | 1014.1 |
| 20260904124933 | 66 | 349 | 2.0 | 4.0 | 0.00 | 0.00 | 0.00 | 99 | 1013.7 |
| 20260904124429 | 65 | 258 | 1.0 | 2.0 | 0.00 | 0.00 | 0.00 | 99 | 1013.8 |
| 20260904123924 | 65 | 65 | 2.0 | 4.0 | 0.00 | 0.00 | 0.00 | 99 | 1013.6 |
| 20260904123419 | 65 | 9 | 1.0 | 2.0 | 0.00 | 0.00 | 0.00 | 99 | 1013.5 |
| 20260904122914 | 65 | 4 | 2.0 | 3.0 | 0.00 | 0.00 | 0.00 | 99 | 1013.5 |
| 20260904122414 | 65 | 87 | 2.0 | 2.0 | 0.00 | 0.00 | 0.00 | 99 | 1013.5 |
| 20260904121908 | 65 | 101 | 1.0 | 2.0 | 0.00 | 0.00 | 0.00 | 99 | 1013.4 |
| 20260904121405 | 65 | 331 | 2.0 | 3.0 | 0.00 | 0.00 | 0.00 | 99 | 1013.3 |
| 20260904120901 | 65 | 295 | 0.0 | 2.0 | 0.00 | 0.00 | 0.00 | 99 | 1013.4 |
| 20260904120357 | 65 | 26 | 2.0 | 2.0 | 0.00 | 0.00 | 0.00 | 99 | 1013.5 |
| 20260904115851 | 65 | 328 | 1.0 | 2.0 | 0.00 | 0.00 | 0.00 | 99 | 1013.4 |
| 20260904115346 | 66 | 36 | 0.0 | 1.0 | 0.00 | 0.00 | 0.00 | 99 | 1013.2 |
| 20260904114841 | 66 | 58 | 0.0 | 2.0 | 0.00 | 0.00 | 0.00 | 99 | 1013.2 |
| 20260904114336 | 65 | 150 | 0.0 | 1.0 | 0.00 | 0.00 | 0.00 | 99 | 1013.3 |
| 20260904113831 | 65 | 154 | 0.0 | 0.0 | 0.00 | 0.00 | 0.00 | 99 | 1013.2 |
| 20260904113330 | 66 | 116 | 1.0 | 3.0 | 0.00 | 0.00 | 0.00 | 99 | 1013.1 |
| 20260904112825 | 65 | 88 | 1.0 | 2.0 | 0.00 | 0.00 | 0.00 | 99 | 1012.8 |
| 20260904112320 | 66 | 194 | 0.0 | 1.0 | 0.00 | 0.00 | 0.00 | 99 | 1012.9 |
| 20260904111816 | 65 | 99 | 1.0 | 3.0 | 0.00 | 0.00 | 0.00 | 99 | 1012.9 |
| 20260904111311 | 66 | 77 | 1.0 | 1.0 | 0.00 | 0.00 | 0.00 | 99 | 1012.7 |
| 20260904110807 | 66 | 95 | 3.0 | 4.0 | 0.00 | 0.00 | 0.00 | 99 | 1012.8 |
| 20260904110306 | 66 | 82 | 2.0 | 2.0 | 0.00 | 0.00 | 0.00 | 99 | 1012.8 |
| 20260904105801 | 66 | 70 | 2.0 | 3.0 | 0.00 | 0.00 | 0.00 | 99 | 1012.6 |
| 20260904105256 | 66 | 55 | 4.0 | 4.0 | 0.00 | 0.00 | 0.00 | 99 | 1012.8 |
| 20260904104751 | 66 | 80 | 1.0 | 4.0 | 0.00 | 0.00 | 0.00 | 99 | 1012.7 |
| 20260904104247 | 66 | 68 | 1.0 | 3.0 | 0.00 | 0.00 | 0.00 | 99 | 1012.9 |
| 20260904103743 | 66 | 43 | 1.0 | 2.0 | 0.00 | 0.00 | 0.00 | 99 | 1012.9 |
| 20260904103237 | 66 | 114 | 0.0 | 2.0 | 0.00 | 0.00 | 0.00 | 99 | 1012.6 |
| 20260904102733 | 66 | 116 | 2.0 | 3.0 | 0.00 | 0.00 | 0.00 | 99 | 1012.6 |
| 20260904102229 | 66 | 102 | 1.0 | 4.0 | 0.00 | 0.00 | 0.00 | 99 | 1012.5 |
| 20260904101725 | 66 | 65 | 2.0 | 6.0 | 0.00 | 0.00 | 0.00 | 99 | 1012.7 |
| 20260904101220 | 66 | 79 | 1.0 | 4.0 | 0.00 | 0.00 | 0.00 | 99 | 1012.5 |
| 20260904100717 | 66 | 94 | 3.0 | 6.0 | 0.00 | 0.00 | 0.00 | 99 | 1012.8 |
| 20260904100212 | 66 | 69 | 3.0 | 4.0 | 0.00 | 0.00 | 0.00 | 99 | 1012.6 |
| 20260904095711 | 66 | 49 | 4.0 | 6.0 | 0.00 | 0.00 | 0.00 | 99 | 1012.5 |
| 20260904095206 | 66 | 66 | 1.0 | 2.0 | 0.00 | 0.00 | 0.00 | 99 | 1012.8 |
| 20260904094701 | 66 | 94 | 2.0 | 3.0 | 0.00 | 0.00 | 0.00 | 99 | 1012.6 |
| 20260904094156 | 66 | 69 | 4.0 | 7.0 | 0.00 | 0.00 | 0.00 | 99 | 1012.5 |
| 20260904093654 | 66 | 60 | 1.0 | 6.0 | 0.00 | 0.00 | 0.00 | 99 | 1012.5 |
| 20260904093153 | 66 | 17 | 2.0 | 3.0 | 0.00 | 0.00 | 0.00 | 99 | 1012.5 |
| 20260904092649 | 66 | 115 | 1.0 | 2.0 | 0.00 | 0.00 | 0.00 | 99 | 1012.7 |
| 20260904092145 | 66 | 108 | 1.0 | 2.0 | 0.00 | 0.00 | 0.00 | 99 | 1012.7 |
| 20260904091641 | 66 | 72 | 1.0 | 6.0 | 0.00 | 0.00 | 0.00 | 99 | 1012.7 |
| 20260904091141 | 66 | 7 | 4.0 | 7.0 | 0.00 | 0.00 | 0.00 | 99 | 1012.7 |
| 20260904090636 | 66 | 78 | 2.0 | 3.0 | 0.00 | 0.00 | 0.00 | 99 | 1012.6 |
| 20260904090132 | 66 | 123 | 1.0 | 4.0 | 0.00 | 0.00 | 0.00 | 99 | 1012.4 |
| 20260904085631 | 66 | 125 | 0.0 | 1.0 | 0.00 | 0.00 | 0.00 | 99 | 1012.4 |
| 20260904085126 | 66 | 99 | 2.0 | 6.0 | 0.00 | 0.00 | 0.00 | 99 | 1012.4 |
| 20260904084622 | 66 | 89 | 1.0 | 4.0 | 0.00 | 0.00 | 0.00 | 99 | 1012.2 |
| 20260904084118 | 66 | 119 | 1.0 | 2.0 | 0.00 | 0.00 | 0.00 | 99 | 1011.9 |
| 20260904083614 | 67 | 66 | 2.0 | 3.0 | 0.00 | 0.00 | 0.00 | 99 | 1012.0 |
| 20260904083109 | 67 | 50 | 1.0 | 2.0 | 0.00 | 0.00 | 0.00 | 99 | 1011.9 |
| 20260904082604 | 67 | 59 | 1.0 | 2.0 | 0.00 | 0.00 | 0.00 | 98 | 1011.9 |
| 20260904082100 | 67 | 82 | 2.0 | 4.0 | 0.00 | 0.00 | 0.00 | 98 | 1011.7 |
| 20260904081555 | 67 | 114 | 1.0 | 3.0 | 0.00 | 0.00 | 0.00 | 98 | 1011.6 |
| 20260904081050 | 68 | 99 | 2.0 | 4.0 | 0.00 | 0.00 | 0.00 | 98 | 1011.7 |
| 20260904080546 | 68 | 55 | 4.0 | 4.0 | 0.00 | 0.00 | 0.00 | 98 | 1011.4 |
| 20260904080042 | 68 | 8 | 2.0 | 4.0 | 0.00 | 0.00 | 0.00 | 98 | 1011.2 |
| 20260904075538 | 68 | 92 | 4.0 | 4.0 | 0.00 | 0.00 | 0.00 | 98 | 1011.2 |
| 20260904075032 | 69 | 120 | 1.0 | 2.0 | 0.00 | 0.00 | 0.00 | 98 | 1011.4 |
| 20260904074531 | 69 | 72 | 2.0 | 6.0 | 0.00 | 0.00 | 0.00 | 98 | 1011.3 |
| 20260904074026 | 69 | 95 | 2.0 | 4.0 | 0.00 | 0.00 | 0.00 | 98 | 1011.2 |
| 20260904073521 | 70 | 86 | 3.0 | 4.0 | 0.00 | 0.00 | 0.00 | 98 | 1011.3 |
| 20260904073018 | 70 | 91 | 1.0 | 3.0 | 0.00 | 0.00 | 0.00 | 99 | 1011.3 |
| 20260904072513 | 71 | 81 | 2.0 | 4.0 | 0.00 | 0.00 | 0.00 | 99 | 1011.3 |
| 20260904072008 | 71 | 76 | 1.0 | 3.0 | 0.00 | 0.00 | 0.00 | 99 | 1011.2 |
| 20260904071503 | 71 | 149 | 1.0 | 3.0 | 0.00 | 0.00 | 0.00 | 98 | 1011.4 |
| 20260904070958 | 71 | 88 | 1.0 | 4.0 | 0.00 | 0.00 | 0.00 | 98 | 1011.5 |
| 20260904070457 | 72 | 124 | 2.0 | 6.0 | 0.00 | 0.00 | 0.00 | 98 | 1011.1 |
| 20260904065952 | 72 | 119 | 1.0 | 2.0 | 0.00 | 0.00 | 0.00 | 98 | 1011.2 |
| 20260904065447 | 72 | 123 | 2.0 | 3.0 | 0.00 | 0.00 | 0.00 | 98 | 1011.2 |
| 20260904064942 | 72 | 124 | 0.0 | 4.0 | 0.00 | 0.00 | 0.00 | 98 | 1011.4 |
| 20260904064438 | 73 | 15 | 1.0 | 2.0 | 0.00 | 0.00 | 0.00 | 98 | 1010.9 |
| 20260904063933 | 73 | 123 | 2.0 | 2.0 | 0.00 | 0.00 | 0.00 | 97 | 1010.9 |
| 20260904063430 | 73 | 55 | 2.0 | 9.0 | 0.00 | 0.00 | 0.00 | 97 | 1011.5 |
| 20260904062924 | 74 | 9 | 3.0 | 7.0 | 0.00 | 0.00 | 0.00 | 97 | 1011.2 |
| 20260904062420 | 74 | 137 | 0.0 | 2.0 | 0.00 | 0.00 | 0.00 | 96 | 1010.9 |
| 20260904061916 | 73 | 114 | 2.0 | 4.0 | 0.00 | 0.00 | 0.00 | 97 | 1010.7 |
| 20260904061412 | 74 | 64 | 2.0 | 2.0 | 0.00 | 0.00 | 0.00 | 97 | 1010.6 |
| 20260904060908 | 73 | 88 | 1.0 | 2.0 | 0.00 | 0.00 | 0.00 | 97 | 1010.8 |
| 20260904060404 | 74 | 107 | 2.0 | 3.0 | 0.00 | 0.00 | 0.00 | 97 | 1010.8 |
| 20260904055859 | 74 | 120 | 2.0 | 3.0 | 0.00 | 0.00 | 0.00 | 97 | 1010.8 |
| 20260904055354 | 74 | 124 | 1.0 | 1.0 | 0.00 | 0.00 | 0.00 | 97 | 1010.8 |
| 20260904054850 | 74 | 141 | 1.0 | 2.0 | 0.00 | 0.00 | 0.00 | 97 | 1010.8 |
| 20260904054346 | 74 | 122 | 1.0 | 1.0 | 0.00 | 0.00 | 0.00 | 97 | 1010.8 |
| 20260904053841 | 74 | 195 | 1.0 | 2.0 | 0.00 | 0.00 | 0.00 | 97 | 1010.7 |
| 20260904053340 | 74 | 120 | 1.0 | 2.0 | 0.00 | 0.00 | 0.00 | 97 | 1010.5 |
| 20260904052836 | 74 | 123 | 2.0 | 3.0 | 0.00 | 0.00 | 0.00 | 97 | 1010.5 |
| 20260904052333 | 74 | 70 | 2.0 | 2.0 | 0.00 | 0.00 | 0.00 | 98 | 1010.5 |
| 20260904051829 | 74 | 127 | 1.0 | 1.0 | 0.00 | 0.00 | 0.00 | 98 | 1010.4 |
| 20260904051324 | 74 | 120 | 0.0 | 1.0 | 0.00 | 0.00 | 0.00 | 98 | 1010.4 |
| 20260904050819 | 74 | 128 | 0.0 | 0.0 | 0.00 | 0.00 | 0.00 | 97 | 1010.1 |
| 20260904050316 | 74 | 150 | 0.0 | 1.0 | 0.00 | 0.00 | 0.00 | 97 | 1010.2 |
| 20260904045810 | 74 | 74 | 1.0 | 2.0 | 0.00 | 0.03 | 0.03 | 97 | 1010.2 |
| 20260904045307 | 74 | 210 | 0.0 | 1.0 | 0.00 | 0.03 | 0.03 | 97 | 1010.3 |
| 20260904044759 | 75 | 127 | 0.0 | 0.0 | 0.00 | 0.03 | 0.03 | 96 | 1010.3 |
| 20260904044256 | 75 | 183 | 0.0 | 1.0 | 0.00 | 0.03 | 0.03 | 95 | 1010.2 |
| 20260904043746 | 75 | 78 | 0.0 | 2.0 | 0.00 | 0.03 | 0.03 | 96 | 1010.0 |
| 20260904043243 | 75 | 76 | 2.0 | 2.0 | 0.00 | 0.03 | 0.03 | 96 | 1010.1 |
| 20260904042743 | 75 | 109 | 2.0 | 2.0 | 0.00 | 0.03 | 0.03 | 97 | 1010.1 |
| 20260904042239 | 74 | 89 | 1.0 | 2.0 | 0.00 | 0.03 | 0.03 | 98 | 1010.2 |
| 20260904041738 | 74 | 173 | 0.0 | 0.0 | 0.00 | 0.03 | 0.03 | 98 | 1010.1 |
| 20260904041235 | 74 | 114 | 0.0 | 1.0 | 0.00 | 0.03 | 0.03 | 98 | 1010.1 |
| 20260904040731 | 75 | 96 | 1.0 | 1.0 | 0.00 | 0.03 | 0.03 | 97 | 1010.2 |
| 20260904040226 | 75 | 99 | 1.0 | 1.0 | 0.00 | 0.03 | 0.03 | 96 | 1010.2 |
| 20260904035722 | 75 | 81 | 1.0 | 1.0 | 0.00 | 0.03 | 0.03 | 96 | 1010.2 |
| 20260904035217 | 75 | 174 | 0.0 | 1.0 | 0.00 | 0.03 | 0.03 | 96 | 1010.2 |